[[{"header":{"parameterUnit":"m.s-1","parameterCategory":1,"la1":30.2991,"la2":30.254,"lo1":-89.0895,"lo2":-89.0444,"dy":0.0017,"dx":0.0017,"nx":28,"ny":28,"refTime":"2024-04-22T03:00:00:Z","depth":0,"parameterNumber":2,"parameterNumberName":"U-component_of_WINDS"},"data":[0,0,0,0,0,0,0,0,0,0,0,0,0,0,0,0,0,0,0,0,0,0,0,0,0,0,0,0,0,0,0,0,0,0,0,0,0,0,0,0,0,0,0,0,0,0,0,0,0,0,0,0,0,0,0,0,0,0,-2.966,-2.9661,0,-2.9723,-2.9724,-2.9725,-2.9659,-2.9657,-2.9654,-2.9652,-2.9715,-2.9719,-2.9723,0,0,0,0,0,0,0,0,0,0,0,0,0,-2.9481,-2.9484,-2.966,-2.9661,-2.9662,-2.9723,-2.9724,-2.9725,-2.966,-2.9657,-2.9653,-2.9651,-2.9714,-2.9718,-2.9723,0,0,0,0,0,0,0,0,0,0,0,0,0,-2.9553,-2.9486,-2.966,-2.9637,-2.9635,-2.9723,-2.9724,-2.9725,-2.966,-2.9656,-2.9653,-2.9649,-2.9712,-2.9718,-2.9724,-2.9837,0,0,-2.9742,-2.9745,0,0,0,0,0,0,0,0,-2.9549,-2.9559,-2.9639,-2.9638,-2.9637,-2.968,-2.9684,-2.9763,-2.9661,-2.9651,-2.9652,-2.9647,-2.9706,-2.9712,-2.9733,-2.984,-2.9843,-2.9743,-2.9747,-2.9749,-2.9751,0,0,0,0,0,0,0,-2.9544,-2.9556,-2.9685,-2.9641,-2.9639,-2.9622,-2.9628,-2.9699,-2.9699,-2.9651,-2.9647,-2.9655,-2.9705,-2.9727,-2.9734,-2.9844,-2.9743,-2.9748,-2.9752,-2.9754,-3.0045,-3.0049,0,0,0,0,0,0,-2.9542,-2.9553,-2.9683,-2.9687,-2.9583,-2.9629,-2.9635,-2.967,-2.9698,-2.9699,-2.9658,-2.9652,-2.9718,-2.9727,-2.9736,-2.9868,-2.9749,-2.9755,-2.9758,-3.0041,-3.0046,-3.0051,0,0,0,0,0,0,-2.9538,-2.9554,-2.9681,-2.9619,-2.9633,-2.9636,-2.9675,-2.9673,-2.9695,-2.9703,-2.9703,-2.9681,-2.9716,-2.9727,-2.9812,-2.9869,-2.9758,-2.9763,-3.0037,-3.0043,-3.0049,-3.0135,0,0,0,0,0,0,-2.9533,-2.9553,-2.9597,-2.962,-2.9637,-2.9757,-2.9678,-2.9677,-2.9706,-2.9698,-2.9724,-2.9725,-2.9714,-2.9803,-2.9818,-2.9876,-2.9768,-3.0031,-3.0039,-3.0047,-3.0127,-3.0144,-3.0158,0,0,0,0,0,-2.9527,-2.9619,-2.96,-2.9616,-2.9692,-2.976,-2.977,-2.9755,-2.9711,-2.9754,-2.9759,-2.9724,-2.9861,-2.9813,-2.9829,-2.9889,-3.0028,-3.0037,-3.0046,-3.0121,-3.0141,-3.0157,0,0,0,0,0,0,-2.9602,-2.9622,-2.96,-2.9703,-2.973,-2.9749,-2.9803,-2.9777,-2.9818,-2.9809,-2.9788,-2.9795,-2.9884,-2.9896,-2.9841,-2.9999,-2.9937,-2.995,-2.9988,-3.0007,-3.0022,-3.0016,-2.9773,0,0,0,0,0,-2.9631,-2.9686,-2.97,-2.9789,-2.9804,-2.9802,-2.9831,-2.9817,-2.9845,-2.9856,-2.9867,-2.9895,-2.9944,-2.9977,-3.0022,-3.0129,-3.0133,-3.0179,-3.0194,-3.0206,-3.0217,-3.0272,-3.0292,-3.0081,-3.0081,-3.0081,0,0,-2.969,-2.9708,-2.9744,-2.9804,-2.9824,-2.988,-2.9812,-2.9874,-2.9915,-2.9865,-2.9945,-2.9955,-2.9985,-3.0081,-3.0123,-3.0093,-3.0276,-3.0218,-3.0228,-3.0232,-3.0283,-3.0303,-3.0321,-3.0087,-3.0086,-3.0085,0,0,-2.9826,-2.9846,-2.9921,-2.9943,-2.9974,-2.9971,-2.999,-3.0013,-3.0017,-3.0097,-3.0061,-3.0109,-3.0194,-3.0216,-3.0238,-3.0382,-3.0351,-3.0398,-3.0476,-3.053,-3.0547,-3.0561,-3.061,-3.0628,-3.0409,-3.0409,-3.0409,0,-2.9896,-2.9979,-2.9963,-3.0028,-3.0054,-3.0013,-3.0087,-3.0109,-3.0153,-3.0172,-3.0137,-3.0242,-3.026,-3.0359,-3.0394,-3.0414,-3.0433,-3.0394,-3.0546,-3.056,-3.0573,-3.0619,-3.0638,-3.0414,-3.0414,-3.0413,-3.0413,0,-3.0062,-3.012,-3.0177,-3.0221,-3.0254,-3.0324,-3.0317,-3.0353,-3.0336,-3.0337,-3.0419,-3.0438,-3.0486,-3.0509,-3.0494,-3.0606,-3.0585,-3.0549,-3.0485,-3.0599,-3.0642,-3.066,-3.0422,-3.042,-3.0419,-3.0417,0,0,-3.0246,-3.0279,-3.03,-3.0318,-3.035,-3.0394,-3.0461,-3.0508,-3.0538,-3.057,-3.0624,-3.0698,-3.0663,-3.0689,-3.0676,-3.0723,-3.0833,-3.068,-3.0681,-3.0706,-3.0954,-3.098,-3.1001,-3.0813,-3.0817,-3.0819,-3.0951,0,-3.038,-3.0497,-3.0484,-3.0595,-3.0647,-3.0608,-3.0666,-3.0691,-3.0694,-3.0738,-3.0741,-3.0792,-3.0745,-3.076,-3.0805,-3.081,-3.0882,-3.0801,-3.0861,-3.0864,-3.0852,-3.1023,-3.1051,-3.1174,-3.0968,-3.0971,-3.0973,0,-3.0553,-3.059,-3.0706,-3.0728,-3.0749,-3.0802,-3.0843,-3.0886,-3.0913,-3.0912,-3.094,-3.0918,-3.0984,-3.0922,-3.1011,-3.0956,-3.098,-3.0987,-3.0991,-3.0994,-3.0923,-3.1028,-3.1213,-3.1231,-3.1,-3.0998,-3.0996,0,-3.0672,-3.0752,-3.0831,-3.0848,-3.0876,-3.0913,-3.0926,-3.095,-3.0978,-3.1014,-3.1032,-3.1076,-3.1099,-3.1133,-3.1122,-3.1078,-3.1213,-3.1151,-3.1212,-3.1212,-3.124,-3.1238,-3.1429,-3.1261,-3.1261,-3.126,-3.126,0,-3.0822,-3.0893,-3.0884,-3.0933,-3.1011,-3.0996,-3.1074,-3.1082,-3.1103,-3.1151,-3.1121,-3.1167,-3.1152,-3.1197,-3.119,-3.1263,-3.1275,-3.1274,-3.1271,-3.1276,-3.1275,-3.1289,-3.1279,-3.1265,-3.1264,-3.1263,-3.1263,0,-3.0967,-3.0964,-3.1047,-3.1066,-3.1073,-3.113,-3.1146,-3.119,-3.1191,-3.1253,-3.1266,-3.1267,-3.1318,-3.1312,-3.137,-3.1365,-3.1455,-3.1443,-3.1446,-3.1442,-3.1503,-3.1497,-3.1708,-3.1733,-3.1552,-3.1553,-3.1555,0,-3.1061,-3.1115,-3.114,-3.1171,-3.1186,-3.1236,-3.1264,-3.1251,-3.1282,-3.1316,-3.1357,-3.1405,-3.1443,-3.1526,-3.1531,-3.1575,-3.1561,-3.1633,-3.1568,-3.157,-3.1559,-3.1555,-3.1559,-3.1644,-3.1646,-3.1648,-3.1649,0,-3.1228,-3.1224,-3.1267,-3.1309,-3.1344,-3.1377,-3.1406,-3.1433,-3.1422,-3.1459,-3.151,-3.154,-3.1598,-3.1646,-3.1686,-3.1699,-3.1672,-3.167,-3.1686,-3.169,-3.1688,-3.1687,-3.1478,-3.1665,-3.1663,-3.1662,-3.1661,-3.1661,-3.1349,-3.1394,-3.1418,-3.1466,-3.1487,-3.1515,-3.1558,-3.1564,-3.1607,-3.1653,-3.1643,-3.1701,-3.1725,-3.1777,-3.1794,-3.1838,-3.1812,-3.1836,-3.1841,-3.1847,-3.1852,-3.1684,-3.1846,-3.1845,-3.1845,-3.1845,-3.1844,0,-3.1511,-3.1525,-3.157,-3.1612,-3.1649,-3.1622,-3.1653,-3.1686,-3.1737,-3.1763,-3.18,-3.1859,-3.1905,-3.1914,-3.1957,-3.1991,-3.198,-3.2003,-3.1998,-3.2001,-3.1875,-3.1855,-3.2011,-3.2011,-3.2011,-3.2011,-3.2011,-3.2011,-3.16,-3.1675,-3.1673,-3.1757,-3.177,-3.1827,-3.1846,-3.1871,-3.1891,-3.1958,-3.1996,-3.2002,-3.202,-3.2064,-3.2105,-3.2106,-3.2122,-3.215,-3.2146,-3.2027,-3.201,-3.1994,-3.1976,-3.2154,-3.2154,-3.2268,-3.2269,-3.227]},{"header":{"parameterUnit":"m.s-1","parameterCategory":1,"la1":30.2991,"la2":30.254,"lo1":-89.0895,"lo2":-89.0444,"dy":0.0017,"dx":0.0017,"nx":28,"ny":28,"refTime":"2024-04-22T03:00:00:Z","depth":0,"parameterNumber":3,"parameterNumberName":"V-component_of_WINDS"},"data":[0,0,0,0,0,0,0,0,0,0,0,0,0,0,0,0,0,0,0,0,0,0,0,0,0,0,0,0,0,0,0,0,0,0,0,0,0,0,0,0,0,0,0,0,0,0,0,0,0,0,0,0,0,0,0,0,0,0,-2.2867,-2.2868,0,-2.2926,-2.2926,-2.2927,-2.2915,-2.2914,-2.2913,-2.2912,-2.2971,-2.2973,-2.2976,0,0,0,0,0,0,0,0,0,0,0,0,0,-2.2742,-2.2744,-2.2867,-2.2868,-2.2868,-2.2926,-2.2927,-2.2927,-2.2915,-2.2914,-2.2913,-2.2911,-2.297,-2.2973,-2.2976,0,0,0,0,0,0,0,0,0,0,0,0,0,-2.2798,-2.2745,-2.2867,-2.2869,-2.287,-2.2926,-2.2927,-2.2928,-2.2916,-2.2914,-2.2912,-2.2911,-2.2969,-2.2972,-2.2976,-2.3032,0,0,-2.2988,-2.299,0,0,0,0,0,0,0,0,-2.2795,-2.2802,-2.2868,-2.2869,-2.287,-2.2911,-2.2904,-2.2963,-2.2916,-2.2898,-2.2912,-2.291,-2.2952,-2.2957,-2.2972,-2.3035,-2.3037,-2.2988,-2.2991,-2.2992,-2.2993,0,0,0,0,0,0,0,-2.2791,-2.28,-2.289,-2.2869,-2.287,-2.2867,-2.2873,-2.2915,-2.2933,-2.29,-2.2899,-2.2906,-2.2952,-2.2968,-2.2973,-2.3038,-2.2988,-2.2992,-2.2994,-2.2995,-2.3149,-2.315,0,0,0,0,0,0,-2.2786,-2.2797,-2.2888,-2.2892,-2.2828,-2.287,-2.2877,-2.29,-2.2933,-2.2936,-2.2907,-2.2905,-2.2962,-2.2969,-2.2975,-2.3041,-2.2992,-2.2996,-2.2998,-2.3147,-2.3149,-2.3151,0,0,0,0,0,0,-2.2784,-2.2795,-2.2886,-2.2844,-2.2855,-2.2874,-2.29,-2.2902,-2.2918,-2.2939,-2.2942,-2.292,-2.2961,-2.297,-2.3018,-2.3043,-2.2998,-2.3001,-2.3145,-2.3147,-2.315,-2.3176,0,0,0,0,0,0,-2.278,-2.2794,-2.2816,-2.2845,-2.2858,-2.2929,-2.2901,-2.2904,-2.2924,-2.2922,-2.2952,-2.2955,-2.2961,-2.3012,-2.3022,-2.3048,-2.3004,-2.3143,-2.3146,-2.3149,-2.3173,-2.3179,-2.3184,0,0,0,0,0,-2.2776,-2.2821,-2.2817,-2.2828,-2.2886,-2.293,-2.2937,-2.2943,-2.2927,-2.2948,-2.2962,-2.2954,-2.3039,-2.3017,-2.3028,-2.3055,-2.3141,-2.3145,-2.3149,-2.317,-2.3178,-2.3184,0,0,0,0,0,0,-2.2794,-2.2825,-2.2821,-2.2877,-2.2901,-2.2928,-2.2956,-2.2952,-2.2981,-2.2977,-2.2983,-2.299,-2.3038,-2.3052,-2.3027,-2.3111,-2.3087,-2.3094,-2.31,-2.3107,-2.3113,-2.3108,-2.3007,0,0,0,0,0,-2.2805,-2.2839,-2.2863,-2.291,-2.2923,-2.2937,-2.2957,-2.2959,-2.2984,-2.2994,-2.3011,-2.3035,-2.3067,-2.3088,-2.3119,-2.3175,-2.318,-2.3199,-2.3205,-2.3209,-2.3214,-2.3243,-2.3251,-2.3164,-2.3164,-2.3164,0,0,-2.2827,-2.2848,-2.2869,-2.2915,-2.2934,-2.2968,-2.2946,-2.2983,-2.3008,-2.3,-2.3046,-2.3059,-2.3086,-2.3138,-2.3162,-2.3151,-2.324,-2.3214,-2.3218,-2.322,-2.3248,-2.3256,-2.3264,-2.3167,-2.3166,-2.3166,0,0,-2.2885,-2.2905,-2.2945,-2.2965,-2.2994,-2.3003,-2.3013,-2.304,-2.3049,-2.3095,-2.3089,-2.3119,-2.3174,-2.3193,-2.321,-2.3274,-2.3267,-2.3284,-2.3313,-2.3342,-2.3348,-2.3354,-2.3376,-2.3384,-2.3289,-2.3289,-2.3289,0,-2.2909,-2.2961,-2.2967,-2.3004,-2.3024,-2.3018,-2.3058,-2.3076,-2.3114,-2.3127,-2.3114,-2.3183,-2.3201,-2.3256,-2.3271,-2.3286,-2.3296,-2.328,-2.3347,-2.3353,-2.3359,-2.3379,-2.3388,-2.329,-2.329,-2.329,-2.329,0,-2.2988,-2.3023,-2.3053,-2.3089,-2.3112,-2.3151,-2.3161,-2.3184,-2.3184,-2.3194,-2.3241,-2.3262,-2.3296,-2.331,-2.331,-2.3365,-2.3357,-2.3346,-2.3322,-2.3369,-2.3388,-2.3396,-2.3293,-2.3292,-2.3292,-2.3291,0,0,-2.3059,-2.3097,-2.3108,-2.3123,-2.3155,-2.3182,-2.322,-2.3254,-2.3272,-2.3298,-2.3329,-2.3375,-2.3365,-2.3384,-2.3386,-2.3411,-2.3458,-2.3397,-2.3397,-2.3406,-2.3518,-2.3525,-2.3534,-2.3454,-2.3456,-2.3457,-2.3515,0,-2.3118,-2.3186,-2.3192,-2.3252,-2.3284,-2.3278,-2.3311,-2.3333,-2.3343,-2.3372,-2.3383,-2.3415,-2.34,-2.3411,-2.3435,-2.3448,-2.3481,-2.3444,-2.3482,-2.3483,-2.3475,-2.3545,-2.3553,-2.3607,-2.3523,-2.3524,-2.3525,0,-2.3197,-2.3225,-2.3288,-2.3313,-2.3327,-2.3357,-2.3387,-2.3415,-2.3439,-2.3444,-2.3466,-2.3465,-2.3502,-2.3478,-2.3529,-2.3504,-2.352,-2.3529,-2.3531,-2.3534,-2.3506,-2.3548,-2.3624,-2.3632,-2.3537,-2.3536,-2.3535,0,-2.3241,-2.3294,-2.3339,-2.3352,-2.3383,-2.3404,-2.3418,-2.344,-2.346,-2.3486,-2.3499,-2.3529,-2.3546,-2.3569,-2.3576,-2.3558,-2.3626,-2.3603,-2.3631,-2.3631,-2.3645,-2.3644,-2.3723,-2.3657,-2.3657,-2.3657,-2.3657,0,-2.3306,-2.3345,-2.3359,-2.3386,-2.3428,-2.3434,-2.3476,-2.3488,-2.3509,-2.3537,-2.3534,-2.3561,-2.3569,-2.3597,-2.3603,-2.3643,-2.3651,-2.3656,-2.3657,-2.3656,-2.3655,-2.3666,-2.3662,-2.3659,-2.3659,-2.3658,-2.3658,0,-2.3362,-2.3373,-2.3421,-2.3446,-2.3453,-2.3483,-2.3504,-2.353,-2.3539,-2.3576,-2.3584,-2.3599,-2.3632,-2.3641,-2.368,-2.3684,-2.3731,-2.3729,-2.3723,-2.3723,-2.375,-2.3747,-2.3838,-2.385,-2.3777,-2.3778,-2.3778,0,-2.3403,-2.3432,-2.346,-2.3479,-2.3494,-2.3525,-2.3544,-2.3551,-2.3571,-2.3601,-2.3622,-2.3655,-2.3681,-2.3733,-2.3747,-2.3776,-2.3774,-2.3804,-2.3778,-2.3776,-2.3773,-2.3771,-2.3773,-2.3808,-2.3809,-2.381,-2.381,0,-2.3473,-2.3476,-2.3505,-2.3535,-2.3559,-2.3583,-2.3606,-2.3622,-2.3632,-2.3654,-2.3688,-2.3708,-2.3748,-2.3779,-2.3809,-2.3822,-2.3818,-2.3818,-2.3826,-2.3825,-2.382,-2.3821,-2.3735,-2.3816,-2.3816,-2.3815,-2.3815,-2.3815,-2.3521,-2.3546,-2.357,-2.3601,-2.362,-2.3641,-2.3666,-2.3678,-2.3706,-2.3739,-2.3742,-2.3777,-2.3799,-2.3839,-2.3854,-2.3881,-2.3872,-2.3884,-2.3886,-2.3889,-2.389,-2.3816,-2.3887,-2.3887,-2.3886,-2.3886,-2.3886,0,-2.359,-2.3604,-2.3634,-2.3666,-2.369,-2.3684,-2.3709,-2.373,-2.3762,-2.3783,-2.3809,-2.3846,-2.3876,-2.3892,-2.3922,-2.3941,-2.3939,-2.3948,-2.3947,-2.3949,-2.3897,-2.3887,-2.3949,-2.3949,-2.3949,-2.3949,-2.3949,-2.3949,-2.3628,-2.3671,-2.3677,-2.3727,-2.3741,-2.3777,-2.3791,-2.381,-2.3827,-2.3869,-2.3895,-2.3905,-2.3924,-2.3955,-2.3982,-2.3986,-2.3996,-2.4006,-2.4009,-2.396,-2.3953,-2.3947,-2.3937,-2.4009,-2.4009,-2.4058,-2.4059,-2.4059]}]]